Marianna, WV

7:58 AM EDT on September 28, 2016 (GMT -0400)
Pineville

Weather History for KI16 - July, 2013

Change the Weather History Date:

Thursday, July 18, 2013

  Actual Average (KBKW) Record (KBKW)
Temperature  
Mean Temperature 81 °F 71 °F  
Max Temperature 92 °F 80 °F 92 °F (1902)
Min Temperature 70 °F 62 °F 47 °F (1976)
Degree Days  
Heating Degree Days 0 0  
Month to date heating degree days 0  
Since 1 June heating degree days 39  
Since 1 July heating degree days 0  
Cooling Degree Days 16 6  
Month to date cooling degree days 108  
Year to date cooling degree days 260  
Since 1 June cooling degree days 219  
Growing Degree Days 31 (Base 50)    
Moisture  
Dew Point 73 °F    
Average Humidity 94    
Maximum Humidity 100    
Minimum Humidity 57    
Precipitation  
Precipitation 0.00 in 0.16 in 1.85 in (1936)
Month to date precipitation 2.87  
Year to date precipitation 24.03  
Snow  
Snow 0.00 in - - ()
Month to date snowfall  
Since 1 September snowfall  
Snow Depth -    
Sea Level Pressure  
Sea Level Pressure 30.27 in    
Wind  
Wind Speed - (North)    
Max Wind Speed -    
Max Gust Speed -    
Visibility 4 miles    
Events Rain    
T = Trace of Precipitation, MM = Missing Value Source: NWS Daily Summary

Daily Weather History Graph

Daily Weather History Graph

Search for Another Location

Airport or City:

Trip Planner

Search our weather history database for the weather conditions in past years. The results will help you decide how hot, cold, wet, or windy it might be!

Date:

Astronomy

Jul. 18, 2013 Rise Set
Actual Time 6:19 AM EDT 8:45 PM EDT
Civil Twilight 5:49 AM EDT 9:15 PM EDT
Nautical Twilight 5:11 AM EDT 9:52 PM EDT
Astronomical Twilight 4:30 AM EDT 10:33 PM EDT
Moon 4:41 PM EDT (7/18) 2:07 AM EDT (7/18)
Length of Visible Light 15h 26m
Length of Day
14h 26m
Waxing Gibbous, 77% of the Moon is Illuminated
Jul 18
Waxing Gibbous
Jul 22
Full
Jul 29
Last Quarter
Aug 6
New
Aug 14
First Quarter

Hourly Weather History & Observations

Time (EDT) Temp. Heat Index Dew Point Humidity Pressure Visibility Wind Dir Wind Speed Gust Speed Precip Events Conditions
12:15 AM 71.2 °F - 71.2 °F 100% 30.33 in 4.0 mi North - - N/A   Overcast
12:35 AM 71.6 °F - 71.6 °F 100% 30.34 in 3.0 mi North - - N/A   Overcast
12:55 AM 71.2 °F - 71.2 °F 100% 30.33 in 3.0 mi North - - N/A   Overcast
1:15 AM 71.1 °F - 71.1 °F 100% 30.33 in 2.5 mi North - - N/A   Overcast
1:35 AM 71.4 °F - 71.4 °F 100% 30.32 in 2.5 mi North - - N/A   Overcast
1:55 AM 71.6 °F - 71.6 °F 100% 30.32 in 3.0 mi North - - N/A   Overcast
2:15 AM 71.6 °F - 71.6 °F 100% 30.32 in 1.8 mi North - - N/A   Overcast
2:35 AM 71.2 °F - 71.2 °F 100% 30.31 in 1.8 mi North - - N/A   Overcast
2:55 AM 71.1 °F - 71.1 °F 100% 30.31 in 2.0 mi North - - N/A   Overcast
3:15 AM 71.2 °F - 71.2 °F 100% 30.31 in 2.5 mi North - - N/A   Overcast
3:35 AM 71.2 °F - 71.2 °F 100% 30.30 in 2.5 mi North - - N/A   Overcast
3:55 AM 71.2 °F - 71.2 °F 100% 30.30 in 2.5 mi North - - N/A   Overcast
4:15 AM 71.1 °F - 71.1 °F 100% 30.29 in 1.8 mi North - - N/A   Overcast
4:35 AM 71.1 °F - 71.1 °F 100% 30.29 in 2.0 mi North - - N/A   Overcast
4:55 AM 70.9 °F - 70.9 °F 100% 30.29 in 1.2 mi North - - N/A   Overcast
5:15 AM 70.9 °F - 70.9 °F 100% 30.30 in 1.2 mi North - - N/A   Overcast
5:35 AM 70.9 °F - 70.9 °F 100% 30.30 in 1.2 mi North - - N/A   Overcast
5:55 AM 70.7 °F - 70.7 °F 100% 30.30 in 1.2 mi North - - N/A   Overcast
6:15 AM 70.7 °F - 70.7 °F 100% 30.30 in 4.0 mi North - - N/A   Overcast
6:35 AM 70.9 °F - 70.9 °F 100% 30.30 in 4.0 mi North - - N/A   Overcast
6:55 AM 70.7 °F - 70.7 °F 100% 30.30 in 1.0 mi North - - N/A   Overcast
7:15 AM 70.7 °F - 70.7 °F 100% 30.30 in 1.5 mi North - - N/A   Overcast
7:35 AM 70.9 °F - 70.9 °F 100% 30.30 in 0.8 mi North - - N/A   Overcast
7:55 AM 70.9 °F - 70.9 °F 100% 30.30 in 1.8 mi North - - N/A   Overcast
8:15 AM 71.4 °F - 71.4 °F 100% 30.31 in 5.0 mi North - - N/A   Overcast
8:35 AM 71.6 °F - 71.6 °F 100% 30.32 in 5.0 mi North - - N/A   Overcast
8:55 AM 72.5 °F - 72.5 °F 100% 30.31 in 5.0 mi North - - N/A   Overcast
9:15 AM 73.2 °F - 72.5 °F 98% 30.32 in 7.0 mi North - - N/A   Overcast
9:35 AM 73.8 °F - 72.5 °F 96% 30.32 in 4.0 mi North - - N/A   Overcast
9:55 AM 73.9 °F - 72.7 °F 96% 30.31 in 4.0 mi North - - N/A   Overcast
10:15 AM 74.3 °F - 72.7 °F 95% 30.31 in 5.0 mi North - - N/A   Overcast
10:35 AM 75.2 °F - 73.4 °F 94% 30.32 in 5.0 mi North - - N/A   Overcast
10:55 AM 75.9 °F - 73.6 °F 92% 30.32 in 7.0 mi North - - N/A   Overcast
11:15 AM 77.5 °F - 74.3 °F 90% 30.31 in 7.0 mi North - - N/A   Overcast
11:55 AM 81.0 °F 87.1 °F 75.7 °F 84% 30.31 in 7.0 mi North - - N/A   Mostly Cloudy
12:15 PM 82.2 °F 89.6 °F 75.9 °F 81% 30.30 in 10.0 mi North - - N/A   Scattered Clouds
12:55 PM 84.2 °F 94.1 °F 77.2 °F 79% 30.29 in 7.0 mi North - - N/A   Scattered Clouds
1:35 PM 87.6 °F 101.4 °F 78.3 °F 74% 30.28 in 7.0 mi North - - N/A   Scattered Clouds
1:55 PM 87.8 °F 100.2 °F 77.2 °F 71% 30.28 in 10.0 mi North - - N/A   Scattered Clouds
2:15 PM 88.0 °F 99.6 °F 76.5 °F 69% 30.26 in 10.0 mi North - - N/A   Scattered Clouds
3:15 PM 91.4 °F 103.8 °F 76.1 °F 61% 30.23 in 10.0 mi North - - N/A   Mostly Cloudy
3:35 PM 90.9 °F 102.4 °F 75.6 °F 61% 30.22 in 10.0 mi North - - N/A   Scattered Clouds
3:55 PM 92.5 °F 103.9 °F 75.0 °F 57% 30.22 in 10.0 mi North - - N/A   Clear
4:35 PM 90.3 °F 102.9 °F 76.5 °F 64% 30.21 in 10.0 mi North - - N/A   Clear
5:15 PM 88.0 °F 101.9 °F 78.3 °F 73% 30.20 in 10.0 mi North - - N/A   Scattered Clouds
6:35 PM 73.6 °F - 73.2 °F 99% 30.20 in 2.0 mi North - - N/A Rain Light Rain
6:55 PM 74.3 °F - 74.1 °F 99% 30.21 in 4.0 mi North - - N/A   Scattered Clouds
7:15 PM 75.9 °F - 75.4 °F 98% 30.20 in 3.0 mi North - - N/A   Clear
7:35 PM 75.6 °F - 74.5 °F 96% 30.20 in 5.0 mi North - - N/A   Clear
7:55 PM 75.7 °F - 74.1 °F 95% 30.20 in 7.0 mi North - - N/A   Clear
8:15 PM 75.0 °F - 73.8 °F 96% 30.20 in 3.0 mi North - - N/A   Clear
8:35 PM 74.3 °F - 73.8 °F 98% 30.19 in 1.8 mi North - - N/A   Mist
8:55 PM 73.8 °F - 73.8 °F 100% 30.20 in 3.0 mi North - - N/A   Clear
9:15 PM 73.4 °F - 73.4 °F 100% 30.20 in 3.0 mi North - - N/A   Clear
9:35 PM 73.0 °F - 73.0 °F 100% 30.21 in 2.5 mi North - - N/A   Clear
9:55 PM 72.9 °F - 72.9 °F 100% 30.22 in 2.5 mi North - - N/A   Mist
10:15 PM 72.5 °F - 72.5 °F 100% 30.22 in 2.0 mi North - - N/A   Mist
10:35 PM 72.1 °F - 72.1 °F 100% 30.22 in 2.5 mi North - - N/A   Mist
10:55 PM 72.1 °F - 72.1 °F 100% 30.22 in 2.5 mi North - - N/A   Overcast
11:15 PM 72.0 °F - 72.0 °F 100% 30.22 in 2.5 mi North - - N/A   Overcast
11:35 PM 71.8 °F - 71.8 °F 100% 30.22 in 2.5 mi North - - N/A   Overcast
11:55 PM 71.8 °F - 71.8 °F 100% 30.22 in 2.0 mi North - - N/A   Overcast